Regional Weather Roundup
Issued by NWS Tiyan, Guam

Current Version | Previous Version | Text Only | Print | Product List | Glossary On
Versions: 1 2 3 4 5 6 7 8 9 10 11 12 13 14 15 16 17 18 19 20 21 22 23 24 25 26 27 28 29 30 31 32 33 34 35 36 37 38 39 40 41 42 43 44 45
000
ASGM40 PGUM 272012
RWRGUM
WEATHER ROUNDUP FOR THE MARIANAS
NATIONAL WEATHER SERVICE TIYAN GU
600 AM CHST SUN DEC 28 2014

GUZ001>004-272100-
MARIANA ISLANDS-

CITY           SKY/WX    TMP DP  RH WIND       PRES   REMARKS
GUAM AIRPORT   MOCLDY    79  75  89 E8        29.84R
ANDERSEN AFB   PTCLDY    77  75  94 NE8       29.84S
ROTA AIRPORT   NOT AVBL
TINIAN AP      PTCLDY    79  75  89 E12       29.84
SAIPAN AP      LGT RAIN  79  75  89 NE14G25   29.85R

$$



USA.gov is the U.S. government's official web portal to all federal, state and local government web resources and services.